Regional Weather Roundup
Issued by NWS Albany, NY

Home | Current Version | Previous Version | Text Only | Print | Product List | Glossary On
Versions: 1 2 3 4 5 6 7 8 9 10 11 12 13 14 15 16 17 18 19 20 21 22 23 24 25 26 27 28 29 30 31 32 33 34 35 36 37 38 39 40 41 42 43 44 45 46 47 48 49 50
000
ASUS41 KALY 300310
RWRALY

NEW YORK STATE HOURLY WEATHER ROUNDUP
NATIONAL WEATHER SERVICE ALBANY NY
1100 PM EDT FRI MAY 29 2015

NOTE: "FAIR" INDICATES FEW OR NO CLOUDS BELOW 12,000 FEET WITH NO
SIGNIFICANT WEATHER AND/OR NO OBSTRUCTIONS TO VISIBILITY.

NYZ032-033-038>043-046>054-057>066-NYZ062>081-300400-
EAST


CITY           SKY/WX    TMP DP  RH WIND       PRES   REMARKS
ALBANY         MOCLDY    74  54  49 S9        30.18S
GLENS FALLS    MOCLDY    63  56  78 CALM      30.17F
POUGHKEEPSIE   PTCLDY    71  58  63 S6        30.21S
MONTGOMERY     PTCLDY    66  59  78 S5        30.23R
WHITE PLAINS   PTCLDY    64  58  80 CALM      30.25R
ISLIP          FOG       62  59  90 S7        30.24S VSB 1
NEW YORK CITY  MOCLDY    68  60  75 S8        30.23F
CENTRAL PARK   PTCLDY    68  59  73 CALM      30.26F
$$

NYZ005>009-017-018-044>046-055-056-300400-
CENTRAL


CITY           SKY/WX    TMP DP  RH WIND       PRES   REMARKS
FULTON         PTCLDY    73  56  54 SE3       30.09F
SYRACUSE       MOCLDY    71  58  63 E8        30.09F
ROME           CLEAR     68  58  70 E7        30.14F
ELMIRA         PTCLDY    73  63  70 S5        30.14F
BINGHAMTON     PTCLDY    70  57  63 S9        30.19S
MONTICELLO     MOCLDY    64  57  77 SE10      30.25F
$$

NYZ026>034-041>043-300400-
NORTH


CITY           SKY/WX    TMP DP  RH WIND       PRES   REMARKS
WATERTOWN      MOCLDY    74  52  46 S8        30.06F
FORT DRUM      NOT AVBL
MASSENA        PTCLDY    59  56  89 CALM      30.09F
SARANAC LAKE   CLEAR     54  51  90 CALM      30.16F
PLATTSBURGH    PTCLDY    59  56  89 CALM      30.11F
$$

NYZ001>004-010>016-019>021-300400-
WEST


CITY           SKY/WX    TMP DP  RH WIND       PRES   REMARKS
NIAGARA FALLS  CLOUDY    73  64  73 S18G24    30.05R
BUFFALO        CLOUDY    78  62  57 SW8G20    30.06R
DUNKIRK        PTCLDY    74  64  71 S20G36    30.05F
JAMESTOWN      PTCLDY    66  61  82 S9        30.15S
WELLSVILLE     CLOUDY    71  61  70 S9        30.18F
ROCHESTER      MOCLDY    77  60  55 S9        30.06F
PENN YAN       PTCLDY    72  61  68 S6        30.12F
$$

             KEY
       WCI = WIND CHILL INDEX
       VSB = VISIBILITY
       HX  = HEAT INDEX
$$


USA.gov is the U.S. government's official web portal to all federal, state and local government web resources and services.